DW6282 Weather Reports


Display with metric or nautical units.
time (UTC)temp
F
wind
direction
speed
MPH
gust
MPH
rain 1hr
in
rain 24hr
in
rain mn
in
humidity
%
barometer
mb
20260503000107 74 4 6.0 13.0 0.00 0.17 0.00 60 1016.7
20260502234558 74 8 6.0 10.0 0.00 0.20 0.00 56 1016.6
20260502233057 75 2 10.0 13.0 0.00 0.20 0.00 56 1016.5
20260502231557 75 22 10.0 14.0 0.00 0.20 0.00 56 1016.4
20260502230057 75 29 7.0 14.0 0.00 0.20 0.00 55 1016.3
20260502224601 75 25 5.0 15.0 0.00 0.25 0.00 56 1016.2
20260502223057 75 34 5.0 15.0 0.00 0.25 0.00 57 1016.2
20260502221554 75 19 9.0 16.0 0.00 0.25 0.00 56 1016.4
20260502220052 75 25 9.0 16.0 0.00 0.25 0.00 60 1016.3
20260502214605 75 20 7.0 17.0 0.00 0.45 0.00 56 1016.4
20260502213049 75 14 10.0 17.0 0.00 0.45 0.00 58 1016.5
20260502211554 74 24 12.0 16.0 0.00 0.45 0.00 55 1016.6
20260502210052 74 37 9.0 14.0 0.00 0.45 0.00 57 1016.5
20260502204543 74 19 7.0 17.0 0.00 0.87 0.00 60 1016.6
20260502203054 74 359 11.0 16.0 0.00 0.87 0.00 58 1016.8
20260502201546 73 8 10.0 15.0 0.00 0.87 0.00 57 1017.1
20260502200041 74 6 6.0 17.0 0.00 0.87 0.00 57 1017.1
20260502194539 73 15 12.0 17.0 0.00 1.29 0.00 59 1017.1
20260502193035 73 19 11.0 16.0 0.00 1.29 0.00 64 1017.5
20260502191533 73 5 8.0 16.0 0.00 1.29 0.00 58 1017.7
20260502190034 73 24 6.0 13.0 0.00 1.29 0.00 66 1017.7
20260502184534 72 338 9.0 16.0 0.00 1.29 0.00 65 1018.0
20260502183028 72 25 7.0 15.0 0.00 1.29 0.00 65 1018.3
20260502181527 72 6 8.0 14.0 0.00 1.29 0.00 65 1018.5
20260502163019 69 15 10.0 16.0 0.00 2.13 0.00 74 1018.7
20260502161510 68 16 10.0 16.0 0.00 2.13 0.00 73 1018.4
20260502151605 65 20 8.0 15.0 0.00 2.15 0.00 79 1018.5
20260502123029 56 349 5.0 10.0 0.00 2.31 0.00 92 1016.9
20260502121524 55 25 5.0 10.0 0.00 2.31 0.00 91 1016.6
20260502114528 55 24 5.0 10.0 0.00 2.31 0.00 90 1016.1
20260502113022 56 21 6.0 13.0 0.00 2.31 0.00 89 1015.9
20260502111514 55 11 8.0 13.0 0.00 2.31 0.00 88 1015.7
20260502110015 55 15 6.0 11.0 0.00 2.31 0.00 89 1015.6
20260502104511 55 14 5.0 9.0 0.00 2.31 0.00 89 1015.5
20260502103008 56 2 6.0 10.0 0.00 2.31 0.00 89 1015.1
20260502101506 56 16 5.0 8.0 0.00 2.31 0.00 90 1015.0
20260502070055 57 4 6.0 14.0 0.00 2.31 0.00 97 1013.7
20260502064613 56 22 8.0 14.0 0.00 2.31 0.00 97 1013.7
20260502063057 56 31 5.0 13.0 0.00 2.31 0.00 97 1013.6
20260502061545 56 23 4.0 11.0 0.00 2.31 0.00 97 1013.5
20260502060047 56 17 6.0 15.0 0.00 2.31 0.00 97 1013.5
20260502054541 56 34 4.0 12.0 0.00 2.31 0.00 97 1013.6
20260502053040 56 359 10.0 18.0 0.00 2.31 0.00 97 1013.9
20260502051536 56 13 7.0 14.0 0.00 2.31 0.00 97 1013.8
20260502050034 57 18 8.0 13.0 0.00 2.31 0.00 97 1013.8
20260502044531 56 1 11.0 19.0 0.00 2.31 2.31 97 1013.7
20260502043029 56 27 12.0 17.0 0.00 2.31 2.31 97 1013.7
20260502041533 57 13 7.0 16.0 0.00 2.31 2.31 97 1013.7
20260502040023 57 7 9.0 15.0 0.01 2.31 2.31 97 1013.5
20260502034519 58 8 9.0 13.0 0.02 2.31 2.31 97 1012.9
20260502033026 58 14 7.0 17.0 0.03 2.31 2.31 97 1012.6
20260502031514 58 33 9.0 16.0 0.04 2.31 2.31 97 1012.2
20260502030012 58 15 9.0 16.0 0.02 2.29 2.29 97 1011.7
20260502024514 59 20 9.0 12.0 0.02 2.34 2.29 97 1011.8
20260502023009 59 20 8.0 15.0 0.01 2.33 2.27 97 1011.9
20260502021508 59 8 7.0 13.0 0.01 2.31 2.27 97 1011.8
20260502020006 59 337 9.0 13.0 0.02 2.31 2.27 97 1011.7
20260502014503 59 8 8.0 13.0 0.05 2.37 2.27 97 1011.4
20260502013002 60 2 8.0 14.0 0.12 2.37 2.27 97 1010.9
20260502011501 60 19 8.0 11.0 0.11 2.36 2.25 97 1010.3
20260502010111 59 96 2.0 8.0 0.11 2.35 2.25 97 1009.2
20260502004558 60 13 10.0 18.0 0.08 2.41 2.22 97 1009.3
20260502003057 60 11 10.0 18.0 0.02 2.34 2.15 97 1009.4
20260502001556 60 15 11.0 18.0 0.04 2.34 2.15 97 1008.9